Find Kosmos-797

NORAD ID: 8613 Int'l Des: 1976-008 Owner: GUKOSR Country: SU operational
LEOCIRCULAR

Live Position

Loading 3D Globe...

About Kosmos-797

Description loading...

Upcoming Passes

Passes for default location (London). Set your location on the main map for personalized predictions.

Altitude History

Loading altitude history...

Two-Line Element Set

1 8613U 76008G 26105.15495850 .00000011 00000-0 19643-3 0 9998
2 8613 74.0529 146.9965 0031222 100.1061 317.9254 12.40687914274192
Epoch: Apr 15, 2026 • Age: 7 hours

Current Status

Altitude 1554.2 km
Velocity 7.08 km/s
Sub-Earth Point -70.34°S, 89.34°E
Type other

Most Searched